Regional Weather Roundup
Issued by NWS

Home | Current Version | Previous Version | Graphics & Text | Print | Product List | Glossary On
Versions: 1 2 3 4 5 6 7 8 9 10 11 12 13 14 15 16 17 18 19 20 21 22 23 24 25 26 27 28 29 30 31 32 33 34 35 36 37 38 39 40 41 42 43 44 45 46 47 48 49 50
000
ASUS45 KBOI 040310
RWRID
WEATHER ROUNDUP FOR IDAHO
NATIONAL WEATHER SERVICE BOISE ID
800 PM MST TUE MAR 03 2015

NOTE: "FAIR" INDICATES FEW OR NO CLOUDS BELOW 12000 FEET
WITH NO SIGNIFICANT WEATHER AND/OR OBSTRUCTIONS TO VISIBILITY

IDZ012-014-040400-
SOUTHWEST IDAHO


CITY           SKY/WX    TMP DP  RH WIND       PRES   REMARKS
BOISE          CLEAR     36  14  40 N9        30.04R WCI  29
CALDWELL       CLEAR     37  14  38 NW8       30.08R WCI  31
MOUNTAIN HOME  CLEAR     32  12  42 NW13      30.03R WCI  23
$$

IDZ016-017-040400-
SOUTHCENTRAL IDAHO


CITY           SKY/WX    TMP DP  RH WIND       PRES   REMARKS
BURLEY         MIX PCPN  31  14  49 W13       29.94R WCI  21
JEROME         CLEAR     31  12  45 SW22G29   29.96S WCI  18
TWIN FALLS     CLEAR     31  13  47 SW16      29.98R WCI  20
$$

IDZ019>023-040400-
SOUTHEAST IDAHO


CITY           SKY/WX    TMP DP  RH WIND       PRES   REMARKS
IDAHO FALLS    PTCLDY    25   7  46 SE6       29.94S WCI  18
POCATELLO      PTCLDY    22  14  71 S3        29.94F
REXBURG        CLEAR     19   5  54 S5        29.94R WCI  12
$$

IDZ006-010-011-018-031-032-040400-
CENTRAL IDAHO MOUNTAINS


CITY           SKY/WX    TMP DP  RH WIND       PRES   REMARKS
MCCALL         CLEAR     22   9  57 NE3       29.99S
HAILEY         PTCLDY    28  19  69 N6        29.88S WCI  22
STANLEY          N/A     22   1  40 NW6       29.90R WCI  14
SALMON         CLEAR     27   9  46 N9        29.99R WCI  17
CHALLIS        CLEAR     28   3  34 N9        29.90R WCI  19
$$

IDZ002-004-006-007-026-040400-
NORTHERN IDAHO


CITY           SKY/WX    TMP DP  RH WIND       PRES   REMARKS
LEWISTON       CLEAR     37  15  40 S3        30.18R
LOWELL           N/A     29  21  72 CALM      30.20R
COEUR D`ALENE  CLEAR     28  10  47 S5        30.11S WCI  23
MULLAN PASS    PTCLDY    12   6  77 NW3       29.94S
$$



USA.gov is the U.S. government's official web portal to all federal, state and local government web resources and services.